Wind_Speed
32 31 29 28 28 29 30 30 29 29 29 30 30 30 30 29 29 30 32 33 34 36 34 34 35 32 29 30 32 32 31 29 27 27 25 24 25 25 25 25 25 25 26 27 27 28 29 28 28 28 27 28 28 28 28 28 28 28 27 26 25 26 26 26 26 27 28 28 27 27 27 27 27 28 28 28 29 29 29 30 30 30 30 31 32 32
34 33 31 30 31 32 32 32 31 31 31 32 32 32 32 32 31 31 34 36 38 39 37 37 37 33 30 31 32 32 31 29 29 29 27 26 26 26 26 26 27 27 28 28 28 29 30 30 29 29 29 29 29 29 29 29 29 29 28 28 27 27 28 28 28 29 29 30 30 29 29 29 30 30 31 31 31 31 31 31 31 31 32 32 33 34
36 34 32 32 33 33 34 33 33 33 33 33 33 34 34 34 34 34 36 38 40 41 40 40 40 36 32 31 31 31 31 29 29 29 28 28 28 27 27 28 29 29 29 30 31 31 31 30 30 30 30 30 30 30 30 30 30 30 30 29 29 29 30 30 30 30 31 31 32 31 31 31 32 32 32 33 32 32 32 33 33 33 33 34 35 35
37 36 35 35 35 35 35 35 35 35 34 34 35 36 36 35 37 37 38 40 41 43 43 43 44 40 34 32 30 30 31 29 28 29 29 29 29 28 28 29 30 30 30 31 32 32 32 30 30 30 31 31 31 31 31 31 31 31 31 31 30 31 31 31 31 32 33 33 33 33 33 33 33 33 33 34 33 33 33 34 34 34 36 36 36 36
39 38 37 37 37 36 36 36 36 36 36 36 36 37 37 37 38 39 40 42 42 44 44 45 47 43 35 33 30 29 31 30 28 29 29 29 29 29 29 29 30 30 31 32 32 33 33 31 30 30 31 31 31 31 31 32 33 32 32 32 32 32 32 32 33 34 34 34 34 34 34 34 34 34 35 34 34 34 34 34 35 36 37 37 37 37
41 40 40 38 38 38 37 37 37 38 38 37 38 37 38 39 40 41 42 44 45 45 44 46 50 46 36 33 31 28 30 30 30 29 28 29 29 30 30 29 30 31 31 32 32 32 32 31 30 30 31 31 31 31 31 32 33 33 33 33 33 33 33 33 34 35 36 36 36 36 36 36 36 36 36 35 35 35 35 36 37 37 38 37 37 37
43 42 41 40 40 40 39 39 38 38 39 39 39 38 40 41 42 44 44 46 48 47 46 46 49 49 41 34 30 29 30 30 29 28 28 28 30 30 31 30 30 31 31 31 32 32 32 31 30 30 31 32 32 32 31 31 33 33 33 34 34 34 34 34 35 36 37 38 38 38 38 38 37 37 37 36 36 36 36 37 37 37 37 37 36 36
45 43 42 42 43 42 42 40 38 39 40 40 40 40 42 43 44 45 46 47 48 48 49 45 44 49 46 36 31 30 30 28 25 25 26 27 29 30 31 31 31 31 31 32 32 32 33 32 32 31 31 32 33 33 32 32 33 34 33 34 34 35 35 35 36 37 39 39 39 39 39 39 39 39 38 37 37 37 37 37 37 36 36 35 36 36
47 46 45 44 45 44 42 40 39 39 40 41 41 42 42 43 45 45 47 48 49 50 50 44 41 47 48 39 34 32 29 25 22 23 26 27 29 30 31 32 32 32 32 33 33 34 34 34 33 33 33 32 33 34 33 33 34 34 34 34 34 35 36 36 37 38 39 40 40 40 40 40 40 39 38 38 38 38 37 36 35 35 35 35 36 37
50 49 48 46 45 44 42 42 41 41 41 41 42 43 43 44 45 47 49 49 50 53 51 43 39 45 49 43 36 33 27 24 24 24 26 27 29 31 32 33 33 34 34 34 34 34 35 35 35 34 34 33 34 34 35 35 36 36 35 36 36 36 36 37 37 38 39 41 41 40 40 40 40 39 39 38 38 38 37 36 35 35 36 37 37 38
51 50 49 48 46 43 42 43 42 41 41 41 42 44 45 47 48 50 52 50 52 55 49 42 39 45 51 43 34 33 28 24 25 26 27 29 30 32 33 34 34 34 34 34 34 35 35 36 35 35 34 34 34 35 36 37 37 37 37 37 37 37 37 37 37 38 40 40 40 40 40 40 40 39 39 39 38 38 37 36 37 38 39 39 39 40
51 50 49 48 46 45 44 44 44 43 42 43 44 46 47 49 51 52 53 52 54 54 46 41 40 44 49 41 34 35 31 25 25 26 28 30 31 33 34 34 35 34 34 34 34 34 35 35 35 35 34 34 35 35 36 37 37 38 38 38 38 38 37 37 38 38 39 40 40 40 40 40 40 40 39 39 39 39 38 38 40 41 42 42 42 42
52 51 50 50 50 49 48 47 46 46 45 44 45 47 47 49 52 53 54 53 53 51 45 42 41 43 44 38 35 37 35 30 27 26 26 27 29 30 32 33 34 35 35 34 34 34 34 35 35 35 35 34 34 35 36 37 38 38 38 38 38 38 38 37 38 38 39 40 40 40 40 41 41 40 40 40 40 40 40 41 43 44 44 44 44 44
54 53 52 53 53 51 49 48 47 46 46 47 48 48 48 50 53 54 53 51 50 49 45 43 43 43 41 36 35 35 35 34 31 29 28 28 27 28 29 31 33 35 36 35 34 34 34 35 35 35 35 34 35 35 36 37 38 38 38 38 38 37 37 37 38 38 39 40 40 40 41 41 41 41 41 41 41 42 43 44 45 46 46 47 46 47
55 55 54 54 53 52 50 49 48 48 49 50 50 50 50 50 50 51 51 50 50 49 47 45 45 43 39 36 35 35 34 33 33 32 32 29 27 27 27 29 32 34 35 35 35 35 35 35 36 36 36 35 35 36 37 37 37 37 37 37 37 36 37 37 38 39 39 40 40 41 41 41 41 41 42 42 43 44 45 46 47 48 48 48 48 49
56 57 56 54 53 53 52 51 51 51 51 52 52 51 50 46 44 47 50 51 51 51 48 46 46 43 40 38 37 37 35 33 33 33 32 30 28 27 28 29 31 33 34 35 36 36 36 37 36 36 36 36 36 37 37 37 37 37 36 36 36 37 37 38 38 39 40 40 40 41 41 41 42 42 43 43 44 45 47 48 49 50 50 49 50 50
57 58 57 56 55 54 53 53 53 52 52 53 53 52 48 44 44 47 50 51 51 52 50 47 45 42 41 39 37 37 36 35 35 35 33 32 29 29 30 31 32 34 35 36 37 37 37 37 37 36 36 36 36 36 37 37 37 37 37 37 37 37 38 38 38 39 40 40 40 40 41 41 42 43 43 44 46 47 48 50 51 51 51 51 52 52
57 58 59 58 57 55 54 53 53 53 53 53 52 49 45 45 47 47 50 51 51 53 52 50 48 45 42 39 36 37 38 38 37 36 33 30 29 30 32 33 35 35 35 35 36 36 37 37 37 36 36 36 36 37 37 37 37 37 36 36 37 37 38 38 39 39 39 39 40 40 41 42 43 43 45 46 47 49 50 52 53 53 53 54 55 55
57 58 59 58 57 57 55 54 55 55 54 52 50 48 47 48 49 48 50 51 51 53 54 52 51 47 43 40 39 39 40 39 38 36 32 27 28 31 33 35 36 35 35 35 35 36 36 36 36 36 35 35 36 37 37 38 38 37 37 37 37 38 38 38 38 38 38 39 40 40 41 42 44 45 46 48 49 51 52 53 54 54 55 56 57 58
56 56 59 60 59 58 57 57 57 55 53 51 50 50 50 51 51 50 50 51 52 54 55 53 51 47 42 41 42 42 42 40 38 35 31 27 28 31 32 34 36 36 36 36 36 36 36 36 35 35 34 34 35 36 37 38 38 38 38 38 37 37 37 37 37 37 38 39 40 41 43 44 46 47 48 49 51 53 54 54 55 56 57 58 59 59
55 57 59 60 60 59 58 56 54 51 49 48 49 51 51 51 52 51 51 52 53 54 54 53 52 49 45 43 44 46 44 39 36 36 33 28 29 31 31 32 34 36 37 37 37 37 36 35 34 34 33 34 34 36 36 37 38 39 38 37 37 37 37 37 38 38 39 41 42 44 45 46 47 48 49 51 53 54 55 56 57 58 58 58 59 60
53 54 54 54 56 55 52 49 47 47 48 48 50 51 51 51 51 52 54 54 53 53 52 53 53 50 47 46 47 48 44 38 36 38 37 31 30 32 31 31 33 35 36 37 37 37 36 35 34 34 34 34 34 35 36 37 38 38 37 37 37 38 38 40 40 41 43 44 45 46 47 47 48 49 51 53 55 56 56 57 58 58 58 59 60 62
46 46 46 48 50 50 48 47 47 48 49 50 51 52 52 52 53 54 53 52 51 51 49 52 54 48 44 48 51 48 43 39 38 39 38 36 34 33 32 31 32 34 35 36 37 37 36 35 35 35 34 33 34 35 36 37 38 38 38 38 39 40 41 43 44 44 45 46 46 46 46 47 49 51 53 55 56 57 58 58 58 58 59 60 62 63
44 45 45 46 47 47 47 48 49 50 52 54 54 53 52 51 51 51 51 50 51 50 49 53 55 48 44 49 52 49 42 39 39 38 37 37 38 35 32 31 32 34 35 36 36 37 37 36 36 35 33 33 34 36 37 38 39 39 40 40 41 42 44 45 46 46 46 46 46 46 47 49 51 53 55 56 57 58 59 59 59 59 61 62 64 64
45 45 44 45 46 47 48 50 52 53 53 53 51 50 49 49 48 50 50 50 51 49 49 54 54 49 47 50 51 49 44 40 40 40 39 38 39 37 34 33 33 34 35 35 36 37 37 37 36 35 35 35 36 37 38 40 40 41 41 42 43 45 46 46 46 46 45 46 47 48 50 52 53 55 56 58 59 60 60 60 59 61 63 64 65 65
45 45 45 46 48 49 50 50 50 49 46 45 47 47 47 47 47 48 48 48 51 52 52 56 55 51 50 51 51 50 48 45 44 43 41 39 38 39 39 37 35 34 34 33 34 36 37 37 37 37 37 37 38 39 40 40 41 41 42 43 44 45 46 47 46 46 47 48 49 51 52 53 55 56 57 59 60 61 61 61 61 63 64 65 66 66
48 49 49 50 50 50 48 47 47 46 45 46 47 47 46 45 45 47 49 51 54 56 55 56 56 54 52 52 52 51 51 49 47 44 41 39 39 42 43 41 38 35 34 33 34 36 37 38 39 40 40 40 40 40 40 40 41 41 41 43 44 45 46 47 47 48 49 51 52 53 53 54 55 56 57 59 61 62 62 62 63 64 65 66 66 66
51 52 51 50 50 48 46 47 49 50 51 50 50 49 49 48 47 50 54 54 54 57 57 55 54 55 53 50 50 52 51 49 45 42 42 43 44 45 44 43 41 39 36 35 36 37 39 41 42 43 43 42 41 41 41 42 42 42 42 44 46 47 47 49 50 51 52 53 53 53 53 53 54 55 57 60 61 63 63 64 64 64 65 66 66 66
52 52 50 49 48 46 45 48 51 53 54 54 54 54 53 52 53 55 57 56 56 59 58 54 55 57 55 51 50 52 50 46 43 44 46 48 48 48 47 45 45 43 40 38 38 39 41 43 44 45 44 44 43 44 44 44 44 44 45 47 48 49 50 52 52 53 53 53 53 52 52 53 54 55 58 60 62 63 63 63 63 64 65 66 66 68
48 47 45 45 46 45 44 46 50 52 54 55 56 56 55 56 57 58 59 58 58 61 60 58 60 60 58 55 54 52 48 45 46 48 48 49 50 51 51 50 50 50 47 43 41 41 43 44 46 47 47 47 47 47 48 48 48 47 47 48 50 52 53 54 54 54 54 54 53 53 53 54 54 55 57 59 62 63 63 63 63 64 65 66 68 70
44 43 42 42 45 45 43 45 49 50 51 53 54 54 55 56 57 59 60 59 60 62 61 60 62 61 59 57 53 51 51 50 50 50 49 49 50 51 53 54 55 55 53 49 46 44 44 45 47 48 49 49 49 50 51 52 51 50 49 49 51 52 53 54 55 55 55 54 54 55 56 55 55 56 57 60 62 63 63 63 64 65 66 68 69 71
44 44 43 43 44 44 40 43 47 47 47 50 52 52 53 55 57 58 59 58 59 61 59 60 62 61 57 55 53 53 54 53 51 50 50 50 51 52 55 57 58 58 57 54 52 48 46 46 47 48 49 49 50 51 53 54 54 53 51 50 50 51 53 54 55 55 56 57 58 58 57 56 56 57 59 61 62 62 63 64 65 66 68 69 71 72
46 47 46 46 48 45 41 44 45 44 48 52 49 47 49 52 54 55 56 56 55 55 56 59 61 59 55 55 56 56 54 52 51 51 52 53 53 55 56 57 58 59 58 56 55 52 50 49 49 49 50 51 52 52 54 55 54 53 51 50 50 51 53 53 54 57 58 59 58 56 55 56 57 59 60 61 62 62 63 65 66 67 68 70 72 73
50 50 49 50 52 50 47 49 49 49 54 52 43 41 44 48 51 53 55 54 53 54 56 57 57 55 54 55 56 56 55 54 53 52 53 54 56 56 56 56 57 56 55 55 54 53 53 52 52 52 52 53 53 53 53 53 52 51 52 51 51 52 54 55 57 58 58 56 55 55 57 58 59 60 61 61 62 63 65 66 67 68 70 71 73 74
52 52 52 51 52 51 49 51 54 57 56 49 42 42 45 47 50 52 53 53 53 54 55 55 55 53 53 54 55 56 56 55 55 55 55 55 56 56 56 55 55 54 53 53 53 54 54 55 54 54 53 53 53 53 52 52 51 51 52 52 53 55 56 58 58 57 54 52 55 58 60 61 61 61 62 62 64 65 67 68 69 70 71 72 73 74
52 54 54 54 54 53 52 55 58 59 56 50 47 45 46 48 50 50 52 52 51 52 54 55 56 54 54 55 55 55 55 56 57 57 56 56 56 55 54 52 51 51 52 52 53 54 55 55 55 54 53 54 54 53 52 51 51 52 52 53 55 57 58 58 56 54 52 55 59 62 63 63 62 62 63 64 66 67 68 69 70 71 72 73 74 76
54 55 55 56 56 55 56 58 58 57 55 53 50 48 48 49 49 49 52 52 50 51 55 56 56 55 54 55 55 56 58 60 60 58 57 58 56 53 51 49 49 49 50 51 53 54 54 55 55 54 54 54 53 52 52 52 53 53 54 55 57 57 57 56 54 53 55 59 63 64 64 63 63 64 65 66 67 68 69 69 71 72 73 74 76 78
57 56 55 56 57 56 56 57 57 58 57 51 48 48 48 48 49 51 54 54 50 51 56 58 57 56 56 57 58 60 62 63 62 58 55 55 55 53 52 50 49 50 51 52 53 54 54 55 56 56 55 55 54 53 52 52 53 53 54 56 57 56 55 54 54 55 59 63 64 64 64 64 64 65 66 67 68 68 69 70 71 72 74 76 79 80
58 56 56 57 58 57 57 59 59 60 56 48 47 49 49 49 50 52 56 55 50 49 53 55 55 54 54 56 58 58 59 60 56 52 51 53 54 54 54 52 51 52 52 53 54 55 56 57 58 58 58 57 55 53 52 52 53 54 55 56 57 56 55 55 57 60 63 65 65 64 64 64 65 66 66 67 68 69 70 72 73 75 77 79 80 80
59 58 58 59 59 58 58 60 61 60 55 50 49 52 52 52 53 55 58 57 50 49 51 50 49 49 49 51 53 53 54 54 51 50 51 53 54 54 55 54 54 55 55 55 56 57 58 60 60 61 60 58 55 53 52 54 55 57 58 57 56 56 56 58 61 63 64 64 64 64 64 65 66 66 67 68 69 71 72 74 76 78 79 79 80 80
59 59 59 58 57 57 57 59 60 59 54 50 51 53 54 56 58 59 59 55 51 52 52 50 50 49 49 50 52 52 53 54 53 53 54 54 55 55 55 55 56 56 57 58 59 60 61 62 62 61 59 56 54 53 54 55 57 58 58 57 57 57 59 61 63 64 64 64 64 65 65 66 67 68 68 70 72 74 75 77 78 79 79 79 80 80
59 58 58 56 55 55 55 56 57 57 51 48 51 55 56 58 60 59 57 55 54 55 55 55 55 54 54 54 55 55 55 56 57 57 58 58 59 58 58 58 58 59 60 61 61 61 61 60 58 56 54 52 52 54 55 56 57 57 57 58 59 61 63 64 65 65 65 65 66 66 66 67 68 69 71 73 74 76 77 77 78 78 78 79 79 80
56 55 54 53 51 52 53 54 55 55 50 47 50 53 54 56 57 56 55 56 56 56 56 57 57 56 57 56 56 56 56 56 57 58 59 59 60 60 60 61 60 60 59 58 58 56 55 54 52 50 49 50 53 55 56 56 57 57 59 61 62 64 65 65 65 65 66 66 66 66 67 68 70 71 73 74 75 76 76 77 77 77 78 78 79 79
54 53 51 49 48 50 52 54 54 52 48 47 49 50 51 52 52 52 53 54 54 54 54 55 55 55 55 55 55 56 56 56 57 57 57 58 58 58 59 58 57 57 56 54 53 52 51 50 48 48 49 52 54 56 57 58 59 60 61 63 64 64 64 64 64 65 65 66 66 68 69 70 71 73 73 74 75 76 76 77 77 78 78 78 79 79
54 53 53 52 52 53 54 54 52 50 47 46 46 47 48 50 50 50 50 51 52 52 53 53 54 53 53 53 53 54 54 55 56 56 56 56 56 56 55 55 55 54 53 52 51 49 48 48 48 49 51 52 54 56 57 58 59 60 61 62 63 63 64 64 64 65 66 67 68 69 70 71 72 73 74 75 76 76 77 77 78 78 78 78 78 78
59 59 58 58 58 58 56 54 51 49 49 49 48 49 51 52 53 53 54 54 54 53 52 52 52 51 50 51 52 53 55 56 56 55 55 54 54 54 53 52 51 51 50 50 49 48 48 48 49 51 52 53 55 56 57 58 59 61 62 63 63 64 64 65 66 67 68 69 70 71 72 73 74 75 76 76 76 76 77 77 77 77 77 77 77 77
60 59 58 57 56 56 56 55 53 53 54 55 56 56 56 56 56 57 56 55 55 54 53 52 52 52 52 53 54 56 57 57 57 56 55 53 53 52 50 49 49 49 48 49 49 49 49 50 51 53 54 56 57 58 59 60 60 61 62 63 63 64 65 66 67 68 69 71 72 73 74 74 75 75 75 75 75 75 75 75 75 75 75 75 75 76
56 57 57 57 56 56 56 57 57 58 59 58 58 57 56 57 57 57 56 56 55 55 55 54 54 54 54 55 55 56 56 57 57 56 54 52 51 50 50 50 49 49 49 49 50 50 51 53 54 55 56 58 58 59 59 60 61 61 62 63 64 65 66 68 69 70 71 72 73 73 74 74 74 74 74 74 74 73 73 74 74 74 74 74 75 76
57 58 58 58 59 59 59 58 58 58 58 57 57 57 57 57 58 58 58 58 57 57 57 57 56 56 56 55 55 55 56 56 55 54 53 52 52 52 52 52 52 52 52 52 52 53 54 55 56 57 57 58 59 60 60 61 62 63 64 65 67 68 69 70 71 71 72 72 72 72 72 72 72 72 72 72 72 73 73 73 74 74 74 75 76 76
60 60 60 60 61 60 58 57 57 57 56 56 56 57 58 59 59 60 60 59 59 58 58 57 57 56 55 55 55 55 55 55 54 53 53 53 53 54 55 55 55 55 55 55 56 56 56 57 58 58 59 60 61 62 63 64 65 66 67 68 69 70 70 71 71 71 71 71 71 71 71 71 71 72 72 72 73 73 74 74 75 75 75 76 77 77
60 60 60 59 58 56 54 54 55 55 55 56 58 59 60 61 61 61 61 60 60 59 57 57 56 55 55 55 55 54 54 54 53 53 53 53 54 55 56 56 56 56 57 57 58 58 59 59 60 61 62 63 64 65 65 66 67 68 68 69 70 70 70 70 70 70 70 70 70 71 71 71 71 72 72 73 73 74 74 75 76 76 76 76 76 76
Wind_Direction
257 259 262 265 266 266 267 269 272 274 276 278 280 283 285 287 288 288 286 285 285 283 284 286 286 285 286 285 284 282 281 282 281 279 276 272 268 266 266 269 272 273 272 271 269 268 268 268 268 269 271 272 272 271 271 270 270 271 271 270 268 266 264 262 261 261 262 263 264 266 268 270 271 272 274 275 276 277 279 281 282 284 286 287 288 289
259 261 263 264 265 267 269 270 272 273 275 278 280 283 285 288 288 287 286 287 286 285 286 287 286 285 285 284 283 283 282 280 277 276 276 273 270 268 267 269 270 271 273 272 270 267 266 266 267 268 270 271 271 270 270 268 268 268 269 269 268 266 264 261 259 258 257 258 260 261 263 266 267 269 271 272 274 276 278 280 281 283 285 287 289 289
259 261 262 264 265 267 269 270 272 273 275 278 280 283 285 288 288 287 287 287 287 287 288 289 286 285 285 284 284 284 282 280 276 273 272 271 270 268 266 266 268 271 273 273 271 269 267 266 266 267 268 269 270 270 269 268 266 266 266 267 267 266 265 262 259 257 255 255 256 258 260 262 264 266 268 270 272 274 277 278 280 282 285 287 288 289
260 261 262 264 265 267 269 271 273 275 276 278 279 282 285 287 287 287 287 287 288 288 289 289 286 284 286 286 284 284 282 281 278 273 269 268 269 267 263 264 267 270 271 271 271 271 271 269 266 266 266 268 269 270 269 267 265 265 265 265 266 266 266 265 262 259 256 255 255 257 258 260 262 265 266 268 271 273 275 277 279 281 284 285 286 287
260 262 263 264 265 267 269 272 274 275 276 277 279 282 285 286 285 286 287 287 287 288 289 289 286 283 285 286 284 285 285 284 282 277 272 269 268 266 263 262 265 268 269 270 270 271 271 271 269 267 266 267 267 268 267 267 266 266 265 266 266 266 266 266 264 261 259 258 257 258 259 260 262 264 266 268 270 273 275 276 278 280 282 284 285 286
260 262 264 265 266 268 270 271 274 275 276 278 280 283 284 284 285 286 286 286 286 286 287 288 286 284 284 283 283 284 282 282 282 279 276 272 269 267 265 264 265 268 269 269 269 270 271 271 270 268 268 267 267 267 267 267 267 267 266 266 267 267 267 266 265 263 261 259 259 259 260 261 263 265 267 269 271 273 275 277 278 280 282 284 285 286
260 262 264 266 267 268 269 271 273 275 276 278 280 283 283 283 284 285 286 286 286 287 285 284 285 286 283 282 283 283 278 277 279 279 276 272 269 267 266 266 267 269 270 270 270 271 271 271 270 269 268 267 267 267 267 268 268 267 267 266 267 267 267 266 264 263 261 259 259 259 260 262 264 265 267 269 272 273 275 277 279 281 283 285 286 287
261 262 264 265 266 267 269 271 272 274 276 278 281 282 282 283 284 284 286 286 286 286 284 283 287 287 284 282 283 278 275 277 280 278 274 271 268 267 267 268 268 268 269 269 270 271 272 272 272 271 268 267 266 266 267 267 267 267 267 267 267 267 267 265 263 261 260 259 258 259 260 262 263 265 267 269 271 273 275 277 279 282 284 286 287 288
261 263 263 264 265 268 270 272 272 274 276 278 279 280 280 281 282 284 285 284 285 283 282 284 289 288 284 283 280 274 274 280 278 273 270 268 268 268 268 268 268 268 268 268 269 270 272 272 273 273 272 270 268 267 266 266 266 267 268 268 268 267 266 264 262 260 259 259 258 258 260 261 263 265 267 269 271 273 275 277 279 282 285 287 288 288
262 263 264 265 266 268 270 271 273 275 276 277 278 278 279 280 282 283 282 283 283 280 281 285 289 287 284 280 277 276 280 283 277 270 268 267 267 267 267 267 268 268 268 269 270 271 272 273 274 274 274 273 270 268 267 266 266 267 268 268 268 267 265 263 261 260 259 258 258 258 259 260 262 264 266 268 271 272 274 277 279 283 286 288 289 289
262 264 265 266 267 268 269 270 272 273 274 275 276 277 279 281 282 282 281 281 279 278 280 284 285 284 281 279 281 283 283 283 278 273 270 268 267 267 267 267 268 268 269 269 270 271 272 273 274 275 275 274 272 270 268 266 266 266 266 267 266 265 264 261 260 259 258 258 258 258 258 260 262 264 266 268 270 272 273 276 280 283 286 288 289 289
263 264 265 266 266 267 267 268 270 271 273 275 277 278 280 280 279 278 277 276 275 277 281 283 282 279 277 281 288 288 288 287 281 275 272 269 268 268 269 270 270 269 269 269 269 270 271 272 273 273 273 273 272 270 268 267 265 265 265 265 264 263 261 259 257 257 257 257 257 257 258 260 262 264 266 268 270 271 273 277 281 284 286 287 289 289
261 262 264 265 266 267 269 270 272 274 275 275 275 275 275 275 275 274 274 274 275 279 281 281 278 275 275 282 288 289 291 291 285 279 275 272 271 270 270 270 270 270 269 269 269 269 270 270 271 271 271 272 272 270 268 266 265 264 263 263 262 261 259 257 256 255 256 256 256 257 258 260 262 264 267 268 269 271 275 280 283 285 286 287 289 290
261 262 264 266 268 270 272 273 273 273 273 273 272 271 271 271 271 273 275 276 277 278 279 277 274 273 277 284 287 287 288 288 287 285 281 277 274 271 269 268 268 269 269 270 270 270 270 270 270 270 270 271 271 270 268 266 265 264 262 261 260 258 256 255 254 254 254 255 255 257 259 261 264 266 267 269 271 274 278 282 284 286 287 288 289 291
263 264 265 267 269 271 272 272 272 272 271 270 269 268 267 268 270 274 276 276 275 275 274 273 272 274 280 285 284 283 283 285 288 287 284 280 275 270 266 265 265 267 269 270 271 271 271 271 271 271 272 272 272 271 269 267 266 264 262 260 258 256 254 253 253 253 254 255 257 259 261 263 265 267 269 271 274 278 281 284 285 287 288 289 291 292
264 265 266 267 269 269 270 270 269 268 267 267 266 265 265 267 269 271 272 273 274 274 273 271 272 275 280 281 279 279 282 285 286 285 283 281 277 272 268 265 264 266 268 270 272 273 273 272 272 272 272 272 271 270 268 266 264 262 260 258 256 254 253 253 253 254 256 257 259 261 263 265 267 269 271 274 278 281 283 285 286 287 288 290 291 292
264 265 265 266 266 266 266 266 265 265 264 263 263 263 265 266 266 266 268 271 273 274 273 273 273 275 276 275 275 278 282 285 285 283 281 281 282 282 277 273 270 268 269 270 271 272 273 273 274 274 273 272 270 267 265 263 262 260 258 256 255 254 254 255 255 256 258 260 262 263 264 266 269 272 275 278 280 282 284 285 286 288 289 290 291 292
263 263 262 262 262 262 261 261 261 261 261 261 262 263 264 264 263 264 267 269 271 273 274 274 273 273 273 273 276 280 282 284 284 282 281 283 288 288 284 281 277 274 273 272 272 272 273 274 274 274 273 271 269 267 265 263 261 259 257 256 255 255 256 257 258 260 261 263 264 265 266 269 272 275 277 279 281 282 284 286 287 288 289 290 291 292
260 260 260 259 259 259 259 258 258 258 259 260 262 263 263 263 264 264 266 267 269 271 272 272 272 272 272 274 278 281 282 282 281 281 283 287 290 289 287 284 283 281 279 277 276 275 275 275 274 273 272 271 269 268 265 263 261 259 257 256 256 257 258 260 262 263 264 265 265 267 269 272 274 276 278 279 281 283 284 286 288 289 289 290 291 292
257 258 258 257 258 258 257 257 257 257 259 260 261 262 262 263 264 263 264 265 267 268 269 271 272 272 273 275 277 278 278 278 279 282 284 287 289 289 287 285 283 283 282 281 280 279 278 278 276 274 272 270 267 266 264 263 261 260 258 258 259 261 262 263 264 264 264 265 267 269 271 273 275 276 278 279 281 283 284 286 288 289 289 290 291 292
255 255 255 256 256 256 256 258 259 260 260 260 259 259 259 259 261 262 262 262 263 265 268 272 274 275 274 274 274 273 273 276 282 283 282 284 287 288 287 284 282 281 282 282 282 281 280 277 275 273 271 268 265 264 262 261 261 261 261 261 262 263 263 264 264 264 265 266 268 270 271 273 275 276 278 280 281 283 284 286 288 289 289 290 290 291
253 253 252 253 253 254 255 256 257 256 256 255 254 254 255 256 257 257 259 260 262 266 271 275 275 273 273 273 272 273 275 281 285 285 284 285 286 287 288 284 281 280 280 281 282 281 278 275 272 270 267 266 264 263 262 261 261 261 260 260 261 261 262 263 263 264 266 267 269 270 272 274 275 277 279 280 281 283 284 286 287 288 288 289 290 291
248 248 247 246 247 249 251 251 250 251 253 253 252 252 252 253 254 256 259 263 266 269 271 272 271 270 271 272 271 273 279 284 285 285 287 288 286 287 289 287 284 282 280 280 281 279 276 272 269 267 266 265 264 263 262 261 260 259 259 259 260 261 262 263 264 266 267 269 270 272 274 275 276 278 279 280 281 282 284 285 286 286 287 289 290 291
243 245 245 245 245 246 249 250 250 251 252 252 253 254 253 254 256 258 261 263 264 266 268 268 269 269 269 270 272 275 279 282 283 284 284 284 285 288 293 292 286 282 280 278 277 275 272 270 268 267 265 264 262 261 260 259 259 259 260 261 261 262 263 265 266 267 269 270 271 273 274 276 277 278 279 280 281 282 283 284 285 286 288 289 290 290
245 246 246 247 247 246 247 248 248 250 253 255 257 259 260 260 259 258 259 260 262 264 264 264 266 269 269 271 275 278 279 280 281 282 280 281 285 289 293 291 285 280 278 277 274 270 268 266 266 264 263 262 261 261 261 261 262 262 263 263 263 264 264 266 267 267 268 270 271 273 275 276 277 279 280 281 282 283 284 285 286 287 289 289 290 290
246 247 248 249 249 246 245 247 250 255 260 262 260 259 261 260 259 259 258 258 260 261 259 260 267 271 271 273 276 278 280 281 280 280 280 283 286 287 287 287 287 284 279 275 271 266 263 262 262 261 261 261 261 261 262 263 263 264 264 264 264 264 264 265 266 266 268 270 272 273 275 277 278 280 281 282 282 283 284 286 287 288 289 289 290 291
247 249 250 251 252 251 250 252 255 258 260 259 258 258 259 258 258 257 255 255 260 260 260 264 269 270 271 273 275 277 278 278 278 279 282 283 282 282 283 286 289 286 278 271 266 261 258 258 258 259 260 261 262 263 263 263 263 263 263 263 263 263 263 263 264 265 268 270 272 273 275 277 279 280 281 282 283 284 286 286 287 287 288 288 290 292
248 250 251 253 255 255 255 257 257 257 257 257 257 257 258 257 256 255 255 258 260 258 261 268 268 267 269 270 271 272 272 273 277 280 282 281 278 279 281 283 284 282 276 268 262 258 255 254 255 256 259 262 264 265 266 266 266 266 266 266 265 264 264 263 264 266 268 270 272 274 277 278 280 280 281 282 284 285 285 285 286 286 287 289 291 293
249 251 252 255 256 254 253 255 255 255 256 256 256 256 256 256 256 257 260 262 259 258 263 268 265 265 268 268 267 268 269 272 276 277 277 278 277 278 278 278 279 279 277 270 262 257 256 255 255 256 258 260 263 265 266 267 268 269 270 269 269 268 266 265 266 267 269 271 274 276 278 280 281 281 282 283 284 284 284 284 285 286 288 290 292 294
253 256 258 259 258 255 251 253 255 255 255 255 256 256 256 257 258 260 261 261 259 259 263 264 263 265 268 268 269 271 271 270 269 270 271 273 275 277 277 278 279 279 278 274 266 261 257 256 257 258 259 261 264 265 266 267 268 270 270 270 270 270 269 268 267 268 270 273 275 278 280 282 282 283 283 283 283 283 284 285 286 288 290 292 294 295
262 263 262 261 261 256 253 256 257 255 254 254 253 254 256 257 258 259 259 259 259 261 264 264 264 266 267 268 270 272 270 267 266 267 269 270 271 274 276 278 279 279 279 278 273 267 262 260 259 260 261 263 265 266 266 267 269 270 271 271 270 269 268 267 267 268 272 275 277 280 283 284 285 285 284 283 283 283 284 286 287 289 291 293 294 295
264 264 261 260 260 258 256 257 256 255 255 253 251 253 257 259 259 259 259 260 261 262 264 263 262 264 265 267 267 266 265 266 268 269 268 268 269 272 274 276 278 279 279 277 275 272 269 265 263 263 263 264 265 266 267 268 270 271 272 272 271 270 269 268 268 270 273 275 278 281 284 286 286 285 284 283 283 283 284 286 288 291 292 293 294 294
258 259 259 259 260 260 258 254 253 254 254 253 253 258 261 260 260 260 259 259 261 261 261 260 261 262 263 263 263 263 265 266 267 267 268 270 272 274 276 278 279 279 278 276 274 273 271 269 267 265 265 266 267 268 270 271 272 273 274 274 274 274 273 272 272 273 275 279 282 285 286 286 285 283 282 282 282 283 285 288 290 292 292 293 293 295
259 260 261 260 261 262 259 254 254 252 251 254 260 261 258 257 258 259 258 258 259 259 259 260 261 262 263 264 265 266 266 265 265 266 269 273 275 277 279 280 281 280 278 275 272 272 271 270 269 268 268 269 271 272 274 275 276 277 278 279 278 277 276 276 277 279 282 284 285 285 285 284 283 282 281 282 283 286 288 290 291 291 292 293 294 295
258 261 261 259 259 259 257 255 253 252 253 258 259 254 252 255 257 258 258 257 258 260 261 263 263 263 264 265 265 264 265 265 266 267 270 273 276 278 279 280 280 279 277 274 272 270 269 268 268 269 271 273 274 276 277 279 279 280 280 279 278 277 278 280 282 284 285 283 282 283 283 282 281 280 281 283 286 288 290 290 291 292 292 293 293 294
257 259 258 257 257 257 256 254 254 256 257 256 253 252 253 253 254 257 259 258 259 262 264 264 264 263 263 263 264 265 266 267 267 267 270 274 276 278 278 278 277 275 273 271 269 268 269 269 271 272 273 275 276 278 279 279 279 279 278 277 277 279 281 282 284 284 281 278 278 280 280 279 279 281 283 285 288 290 290 291 291 291 291 291 292 292
257 258 256 257 258 258 257 257 257 258 257 255 255 258 256 253 254 259 261 259 258 262 264 264 264 264 263 264 266 268 269 269 269 269 272 275 276 275 275 274 272 270 268 267 267 267 269 271 273 274 276 277 278 279 279 278 278 278 277 277 279 281 283 283 282 279 275 274 276 277 277 278 279 282 284 287 289 290 290 289 289 289 290 290 290 291
257 257 255 256 259 259 259 259 260 260 259 258 260 261 258 257 259 262 262 260 258 261 263 264 265 266 267 268 270 271 272 272 271 273 274 274 273 272 271 270 268 266 266 265 265 266 268 271 273 275 276 277 278 279 278 277 276 276 277 279 282 282 281 278 274 271 269 271 273 274 276 278 281 284 286 288 288 288 288 287 288 288 289 289 289 290
254 255 254 255 257 257 257 259 261 263 263 261 260 259 258 260 262 264 264 264 264 265 265 266 269 270 270 270 270 271 271 272 273 273 271 269 269 269 269 268 267 265 264 264 264 265 268 271 273 275 276 277 278 278 276 275 274 276 278 280 279 277 274 270 267 266 268 270 272 274 277 281 283 285 286 286 286 286 286 287 287 288 288 288 288 288
252 253 253 254 255 255 257 260 262 263 263 260 258 258 259 261 263 262 264 267 270 270 269 269 269 269 268 267 268 269 270 272 273 271 268 268 268 268 268 267 266 265 264 265 265 267 269 272 274 276 277 277 276 275 274 275 276 277 277 276 273 270 267 266 266 267 269 272 275 278 281 283 284 284 284 284 285 285 286 287 287 287 287 287 287 287
250 252 252 253 254 255 257 260 262 262 261 260 259 259 260 261 261 262 266 271 272 270 268 267 266 265 265 265 266 267 268 270 270 270 269 269 268 268 268 268 267 266 266 265 266 267 269 272 273 274 274 275 274 274 274 274 273 272 270 267 265 264 264 266 268 270 273 276 279 281 282 282 282 283 283 284 285 286 286 287 286 286 286 286 286 286
246 247 248 248 250 253 255 259 261 261 260 259 259 259 259 261 263 266 270 271 269 266 266 266 266 267 267 266 266 267 267 268 269 270 270 270 269 270 269 269 268 268 267 267 268 268 269 270 271 271 272 272 272 271 269 267 265 263 262 262 263 265 267 270 273 275 277 279 280 280 280 281 281 282 284 285 285 286 285 285 285 285 285 285 285 285
243 243 244 245 247 250 253 255 257 259 260 259 259 260 261 262 264 267 267 267 266 266 266 266 267 269 269 269 269 269 268 269 269 270 270 270 270 270 270 270 270 270 269 269 270 270 270 269 269 269 269 268 267 265 264 264 263 263 264 266 268 270 272 274 275 276 277 277 278 278 279 281 282 283 284 284 284 284 284 284 284 284 284 284 284 285
238 238 240 242 245 249 252 253 256 260 259 256 256 258 260 261 262 264 265 266 267 267 267 268 269 269 269 270 270 270 271 271 271 272 272 272 271 271 271 270 270 269 269 270 270 270 270 270 269 268 267 265 265 265 265 266 267 268 269 271 272 273 274 274 274 275 275 276 278 279 281 282 283 283 284 284 284 284 283 283 283 283 283 284 284 284
240 242 246 249 252 255 256 256 257 257 255 254 256 258 260 262 264 265 267 268 268 267 267 268 269 269 270 271 272 274 275 275 275 275 274 273 273 272 270 269 268 268 269 269 270 270 270 269 269 268 267 266 266 267 268 269 270 271 271 272 271 272 272 272 273 275 277 279 280 282 282 283 283 283 283 283 283 283 283 283 283 283 284 284 284 285
250 252 254 254 254 255 255 254 254 254 254 258 263 266 267 269 269 269 269 269 268 267 267 268 269 270 271 273 275 277 277 277 277 275 274 273 272 272 271 271 270 270 269 269 268 268 268 268 269 268 268 268 268 268 269 269 269 269 269 269 270 271 272 274 276 278 280 281 282 283 283 283 283 283 283 283 283 283 283 284 284 284 284 285 285 285
248 249 249 249 249 251 252 253 255 258 261 265 268 270 270 270 269 268 268 268 267 267 267 268 269 271 273 275 276 277 277 276 275 274 273 273 273 274 274 273 272 271 270 269 269 268 269 269 268 268 268 268 267 268 268 268 268 269 269 271 272 274 276 278 279 281 282 282 283 283 283 283 283 283 284 284 284 284 284 285 285 285 285 285 285 285
243 244 246 248 249 252 254 256 259 263 266 269 270 270 268 267 266 265 265 265 266 266 266 268 270 272 273 274 274 274 274 274 273 273 273 274 274 274 273 272 271 270 268 268 267 267 267 267 267 267 267 267 267 268 269 270 271 273 274 276 277 279 280 281 282 282 283 283 283 284 284 284 284 285 285 285 285 285 285 285 285 285 285 285 285 285
246 247 248 251 254 256 259 262 265 267 268 269 269 267 265 263 263 263 263 264 265 266 267 269 271 272 272 272 272 272 271 271 271 271 271 271 271 271 270 269 269 268 267 267 266 266 266 266 267 267 268 269 271 272 273 275 276 277 279 280 281 282 283 283 284 284 284 284 285 285 285 286 286 286 285 285 285 285 285 284 284 285 284 284 284 285
253 254 256 258 261 263 265 266 266 265 265 265 264 263 262 261 262 262 263 264 265 267 268 270 271 271 271 271 271 270 269 268 268 267 267 267 267 266 266 266 266 266 266 266 266 267 267 268 269 271 272 274 275 276 278 279 280 281 283 284 284 285 285 285 285 285 286 286 286 286 286 286 286 286 285 285 285 285 285 284 284 284 284 284 284 284
257 259 260 261 263 264 264 263 262 262 263 263 262 262 262 262 262 263 264 265 266 268 269 270 271 271 271 271 270 269 267 266 265 264 263 263 263 263 263 263 264 264 265 266 267 268 269 271 272 274 275 277 278 279 281 282 283 284 285 285 285 285 285 286 286 286 286 287 286 286 286 286 285 285 285 284 284 284 284 284 284 284 284 284 284 285
Height
5846 5847 5849 5850 5850 5849 5850 5851 5851 5851 5851 5851 5851 5851 5851 5852 5852 5851 5850 5849 5848 5848 5849 5849 5848 5851 5852 5851 5849 5848 5848 5849 5849 5848 5848 5848 5847 5847 5846 5846 5846 5846 5845 5845 5845 5845 5844 5845 5845 5845 5845 5845 5844 5845 5845 5845 5845 5845 5845 5845 5845 5845 5844 5845 5845 5845 5845 5845 5845 5845 5845 5845 5845 5845 5844 5844 5844 5843 5843 5843 5842 5842 5841 5841 5840 5840
5843 5844 5846 5846 5846 5846 5847 5847 5848 5848 5848 5848 5848 5847 5847 5848 5848 5848 5846 5845 5844 5843 5844 5845 5844 5846 5848 5848 5847 5845 5845 5845 5845 5844 5845 5844 5843 5843 5843 5843 5842 5842 5842 5841 5841 5841 5841 5841 5842 5841 5841 5841 5841 5841 5841 5841 5841 5841 5841 5841 5842 5842 5841 5841 5841 5841 5842 5842 5842 5842 5842 5842 5842 5841 5841 5841 5840 5840 5840 5839 5839 5838 5838 5837 5837 5836
5839 5841 5842 5842 5842 5843 5843 5844 5844 5845 5845 5845 5845 5844 5844 5844 5844 5844 5843 5841 5840 5838 5840 5840 5838 5841 5844 5844 5844 5842 5841 5841 5841 5841 5841 5840 5840 5840 5839 5839 5838 5838 5838 5837 5837 5837 5837 5838 5838 5838 5838 5838 5837 5838 5838 5838 5838 5838 5838 5838 5838 5838 5837 5837 5838 5838 5838 5838 5838 5838 5838 5838 5838 5838 5837 5837 5837 5836 5836 5836 5835 5835 5834 5833 5833 5832
5836 5837 5838 5838 5839 5839 5839 5840 5840 5841 5841 5841 5841 5841 5841 5840 5839 5839 5839 5837 5836 5835 5835 5835 5833 5835 5840 5840 5840 5839 5837 5837 5837 5837 5837 5836 5836 5836 5836 5835 5835 5835 5834 5834 5833 5833 5833 5834 5835 5835 5834 5834 5834 5834 5834 5833 5833 5834 5834 5834 5834 5834 5833 5834 5834 5834 5834 5835 5835 5835 5835 5835 5834 5834 5834 5833 5833 5833 5832 5832 5832 5831 5830 5830 5829 5828
5832 5833 5834 5835 5835 5836 5836 5836 5837 5837 5837 5837 5837 5837 5837 5836 5835 5835 5834 5833 5833 5832 5831 5830 5826 5829 5836 5836 5836 5837 5833 5833 5833 5833 5833 5832 5832 5832 5832 5832 5831 5831 5830 5830 5830 5829 5829 5830 5830 5830 5830 5830 5830 5830 5830 5829 5829 5830 5830 5830 5830 5830 5830 5830 5830 5830 5831 5831 5831 5831 5831 5831 5831 5831 5830 5830 5829 5829 5829 5828 5828 5827 5827 5826 5825 5824
5828 5829 5829 5831 5831 5832 5833 5833 5833 5832 5833 5833 5834 5834 5833 5832 5831 5830 5830 5828 5828 5828 5829 5826 5820 5822 5831 5833 5833 5834 5831 5829 5829 5829 5829 5828 5828 5827 5827 5828 5827 5827 5827 5826 5826 5825 5825 5825 5826 5826 5826 5826 5826 5826 5826 5826 5825 5826 5826 5826 5826 5826 5826 5826 5827 5827 5827 5827 5827 5827 5827 5827 5827 5827 5826 5826 5826 5825 5825 5824 5824 5823 5822 5821 5820 5819
5824 5825 5825 5826 5827 5828 5828 5829 5829 5828 5829 5829 5830 5831 5829 5828 5827 5826 5825 5824 5823 5823 5824 5823 5818 5816 5822 5828 5830 5829 5827 5826 5826 5825 5825 5824 5823 5823 5823 5823 5823 5823 5822 5822 5822 5822 5821 5821 5822 5822 5822 5821 5821 5822 5822 5822 5822 5821 5822 5822 5822 5822 5823 5823 5822 5823 5823 5823 5823 5823 5823 5823 5823 5823 5822 5822 5822 5821 5821 5820 5820 5819 5818 5817 5815 5814
5819 5820 5821 5822 5822 5823 5825 5826 5826 5824 5825 5826 5827 5826 5824 5823 5822 5821 5821 5819 5818 5817 5816 5819 5819 5812 5813 5822 5825 5824 5823 5823 5824 5822 5820 5820 5819 5819 5819 5818 5819 5818 5818 5818 5818 5817 5817 5817 5818 5818 5818 5818 5817 5818 5818 5818 5817 5817 5818 5818 5818 5818 5818 5818 5818 5818 5818 5818 5819 5819 5819 5819 5818 5818 5818 5818 5818 5817 5816 5816 5815 5814 5813 5812 5811 5809
5813 5814 5816 5817 5818 5819 5822 5822 5821 5821 5821 5822 5822 5821 5820 5819 5818 5817 5816 5814 5813 5811 5810 5816 5818 5809 5805 5813 5818 5818 5820 5821 5820 5819 5817 5816 5815 5815 5814 5814 5814 5814 5814 5814 5814 5813 5813 5813 5813 5813 5814 5814 5813 5814 5814 5814 5813 5813 5813 5813 5813 5813 5813 5813 5813 5813 5814 5814 5814 5814 5814 5814 5814 5814 5814 5813 5813 5812 5812 5811 5810 5809 5808 5807 5806 5804
5808 5810 5811 5812 5814 5816 5817 5817 5817 5817 5817 5817 5818 5816 5816 5815 5814 5813 5811 5810 5808 5803 5806 5814 5816 5807 5798 5803 5810 5813 5817 5818 5816 5816 5814 5813 5812 5811 5810 5809 5809 5809 5809 5810 5810 5809 5809 5809 5809 5810 5810 5810 5809 5810 5810 5809 5809 5809 5809 5809 5809 5809 5809 5809 5809 5809 5809 5809 5809 5810 5810 5809 5809 5809 5809 5809 5808 5808 5807 5806 5806 5804 5803 5802 5801 5799
5803 5805 5806 5807 5810 5812 5813 5812 5812 5813 5812 5813 5813 5812 5812 5810 5809 5808 5805 5806 5802 5797 5803 5811 5812 5805 5792 5794 5805 5808 5812 5814 5812 5812 5810 5809 5808 5806 5806 5805 5805 5806 5806 5806 5806 5805 5805 5805 5805 5805 5806 5805 5805 5805 5805 5805 5805 5805 5805 5805 5804 5804 5804 5804 5804 5804 5804 5805 5805 5805 5805 5805 5805 5805 5805 5804 5804 5803 5802 5802 5801 5800 5798 5797 5796 5794
5798 5800 5801 5803 5805 5806 5807 5808 5808 5809 5809 5810 5809 5808 5807 5805 5804 5802 5800 5800 5796 5794 5802 5806 5806 5800 5789 5791 5800 5802 5805 5809 5808 5807 5806 5805 5804 5803 5802 5801 5801 5802 5802 5802 5801 5801 5801 5801 5801 5801 5801 5801 5801 5801 5800 5800 5800 5799 5800 5800 5799 5799 5799 5799 5799 5799 5800 5800 5800 5800 5800 5800 5800 5800 5800 5799 5799 5798 5798 5797 5796 5794 5793 5792 5790 5789
5793 5795 5796 5797 5798 5801 5802 5803 5804 5804 5805 5805 5805 5803 5802 5800 5797 5795 5794 5794 5792 5792 5797 5800 5798 5793 5788 5792 5798 5797 5798 5801 5802 5803 5803 5802 5801 5800 5799 5798 5798 5797 5797 5797 5797 5797 5797 5797 5796 5796 5796 5796 5796 5796 5795 5795 5794 5794 5794 5794 5794 5794 5794 5794 5794 5795 5795 5795 5795 5796 5796 5796 5796 5796 5795 5795 5794 5793 5793 5792 5790 5789 5787 5786 5784 5783
5788 5789 5791 5792 5793 5795 5796 5798 5798 5799 5799 5799 5798 5798 5796 5794 5791 5789 5790 5790 5789 5789 5791 5792 5791 5787 5786 5792 5795 5794 5794 5795 5796 5798 5798 5798 5797 5796 5796 5795 5794 5792 5792 5792 5792 5792 5792 5792 5792 5791 5791 5791 5791 5791 5790 5790 5789 5789 5789 5789 5789 5789 5789 5790 5790 5790 5790 5791 5791 5791 5791 5791 5791 5791 5790 5790 5789 5788 5787 5786 5785 5783 5782 5780 5778 5777
5782 5783 5787 5788 5788 5790 5790 5791 5792 5792 5792 5791 5792 5791 5790 5790 5788 5786 5786 5785 5784 5784 5785 5785 5784 5782 5785 5789 5790 5790 5791 5791 5792 5792 5791 5792 5792 5792 5792 5791 5790 5789 5788 5787 5788 5788 5788 5787 5787 5786 5786 5786 5786 5785 5785 5785 5785 5785 5785 5784 5784 5785 5785 5785 5785 5785 5786 5786 5786 5786 5787 5787 5786 5786 5786 5785 5784 5783 5782 5781 5779 5777 5776 5774 5772 5770
5776 5777 5781 5782 5782 5783 5784 5784 5785 5784 5784 5784 5784 5784 5784 5786 5787 5784 5781 5779 5779 5778 5778 5779 5778 5779 5782 5784 5784 5785 5787 5788 5788 5787 5786 5786 5786 5787 5787 5787 5786 5785 5784 5783 5783 5783 5782 5782 5782 5781 5781 5781 5780 5780 5780 5780 5780 5780 5780 5779 5779 5780 5780 5780 5781 5781 5781 5782 5782 5782 5782 5782 5782 5781 5780 5780 5779 5778 5776 5775 5773 5771 5770 5768 5766 5764
5770 5771 5773 5774 5775 5776 5776 5777 5777 5777 5777 5777 5777 5778 5780 5782 5781 5779 5776 5775 5775 5772 5771 5772 5774 5776 5778 5778 5779 5781 5782 5783 5783 5782 5782 5781 5782 5783 5782 5782 5782 5781 5780 5780 5779 5778 5777 5777 5776 5776 5776 5775 5775 5774 5774 5774 5774 5774 5774 5774 5775 5775 5776 5776 5777 5777 5777 5777 5777 5778 5777 5777 5777 5776 5775 5774 5773 5772 5770 5769 5767 5765 5764 5762 5760 5758
5763 5764 5765 5766 5767 5768 5769 5770 5769 5770 5770 5770 5771 5774 5776 5775 5774 5774 5772 5771 5771 5767 5765 5766 5768 5771 5772 5772 5775 5777 5777 5778 5778 5777 5777 5778 5778 5778 5777 5776 5775 5775 5775 5775 5774 5774 5773 5772 5771 5771 5770 5769 5769 5769 5769 5769 5769 5769 5769 5770 5770 5771 5772 5772 5772 5773 5773 5773 5773 5773 5772 5772 5771 5770 5769 5768 5767 5766 5764 5762 5761 5759 5758 5756 5754 5752
5757 5756 5757 5758 5759 5760 5762 5762 5762 5763 5763 5765 5767 5768 5769 5768 5768 5769 5768 5766 5766 5763 5760 5760 5761 5764 5767 5768 5770 5772 5772 5772 5772 5772 5773 5775 5774 5773 5772 5770 5769 5769 5769 5769 5769 5768 5768 5767 5767 5766 5765 5765 5765 5764 5764 5764 5764 5764 5765 5765 5766 5767 5767 5768 5768 5768 5768 5768 5768 5767 5767 5766 5766 5765 5763 5762 5761 5760 5758 5757 5755 5753 5751 5749 5747 5745
5750 5748 5748 5750 5752 5752 5753 5754 5755 5757 5759 5761 5762 5762 5762 5762 5762 5762 5762 5761 5761 5759 5756 5755 5755 5757 5762 5764 5765 5765 5765 5766 5767 5768 5769 5770 5769 5768 5767 5766 5765 5764 5763 5763 5763 5763 5763 5762 5762 5762 5761 5761 5760 5760 5760 5760 5760 5760 5760 5761 5762 5763 5763 5764 5764 5764 5763 5763 5762 5762 5761 5760 5759 5758 5757 5756 5755 5754 5752 5751 5749 5747 5745 5743 5740 5738
5741 5741 5742 5743 5744 5745 5746 5749 5751 5753 5755 5755 5755 5754 5755 5755 5755 5755 5756 5755 5755 5754 5754 5753 5750 5751 5756 5759 5758 5757 5759 5762 5764 5763 5764 5765 5764 5763 5762 5761 5760 5759 5758 5758 5758 5758 5758 5757 5757 5757 5757 5756 5756 5756 5756 5756 5756 5756 5757 5757 5758 5758 5759 5759 5758 5758 5758 5757 5757 5756 5755 5754 5753 5752 5751 5750 5749 5747 5746 5744 5742 5740 5738 5736 5734 5732
5734 5734 5736 5736 5737 5740 5742 5744 5745 5746 5746 5746 5746 5747 5747 5748 5748 5748 5747 5748 5750 5751 5753 5752 5747 5745 5750 5752 5750 5749 5753 5758 5759 5757 5757 5759 5759 5757 5756 5756 5755 5755 5754 5753 5753 5753 5753 5753 5752 5752 5751 5752 5752 5752 5752 5752 5752 5752 5753 5753 5753 5753 5753 5753 5753 5752 5752 5751 5751 5750 5749 5748 5747 5746 5745 5744 5742 5741 5739 5737 5735 5733 5731 5729 5727 5724
5727 5726 5727 5729 5731 5733 5734 5736 5737 5737 5738 5738 5739 5740 5741 5741 5741 5741 5743 5745 5747 5748 5749 5747 5742 5741 5746 5746 5742 5745 5750 5753 5752 5751 5751 5751 5751 5750 5750 5750 5750 5749 5749 5749 5748 5748 5747 5747 5747 5747 5747 5747 5748 5748 5747 5747 5747 5747 5748 5748 5748 5748 5748 5747 5747 5746 5746 5746 5745 5744 5743 5742 5741 5740 5739 5737 5736 5734 5733 5730 5728 5726 5724 5722 5719 5717
5718 5717 5719 5722 5725 5727 5727 5729 5731 5731 5731 5730 5731 5734 5735 5736 5738 5738 5740 5741 5741 5742 5742 5740 5737 5738 5741 5739 5737 5741 5747 5747 5746 5746 5746 5744 5744 5744 5746 5746 5745 5744 5743 5743 5743 5742 5742 5742 5742 5742 5743 5743 5743 5742 5742 5742 5742 5742 5743 5743 5743 5743 5742 5741 5741 5741 5740 5740 5739 5738 5737 5736 5735 5734 5732 5731 5729 5727 5725 5723 5721 5719 5717 5714 5712 5708
5710 5710 5713 5715 5718 5720 5720 5721 5723 5724 5724 5725 5728 5731 5731 5733 5734 5733 5733 5734 5733 5736 5736 5732 5731 5734 5736 5735 5734 5736 5739 5741 5741 5740 5740 5739 5739 5739 5740 5740 5739 5738 5738 5738 5738 5738 5737 5737 5737 5738 5738 5738 5737 5737 5737 5737 5737 5738 5738 5738 5737 5737 5736 5736 5735 5735 5734 5734 5733 5732 5731 5730 5728 5727 5726 5724 5722 5720 5718 5716 5714 5712 5710 5707 5703 5700
5703 5703 5705 5707 5709 5712 5714 5716 5719 5721 5721 5721 5724 5725 5725 5726 5726 5726 5727 5727 5725 5727 5727 5723 5725 5730 5731 5731 5731 5732 5732 5733 5734 5734 5734 5735 5735 5734 5733 5733 5733 5733 5733 5733 5733 5732 5733 5732 5732 5732 5732 5732 5732 5731 5732 5732 5732 5733 5732 5732 5732 5731 5730 5730 5730 5729 5728 5728 5727 5726 5724 5723 5722 5721 5719 5717 5715 5713 5711 5709 5707 5705 5702 5698 5695 5692
5695 5695 5697 5700 5703 5707 5711 5714 5715 5715 5714 5715 5717 5717 5717 5718 5719 5718 5718 5717 5717 5718 5718 5718 5721 5724 5727 5728 5727 5727 5727 5726 5727 5728 5729 5730 5729 5727 5726 5727 5728 5728 5728 5728 5727 5727 5727 5727 5726 5726 5726 5726 5726 5726 5727 5727 5727 5727 5727 5726 5726 5725 5725 5724 5724 5723 5722 5721 5720 5719 5718 5717 5715 5714 5711 5709 5707 5705 5704 5702 5700 5697 5693 5690 5687 5684
5687 5687 5691 5695 5698 5703 5708 5708 5706 5706 5707 5708 5710 5709 5710 5711 5710 5708 5707 5710 5711 5708 5710 5716 5718 5716 5720 5724 5723 5721 5720 5720 5722 5723 5723 5722 5721 5721 5721 5721 5721 5722 5722 5722 5722 5721 5721 5720 5720 5720 5721 5721 5721 5721 5721 5721 5721 5721 5721 5721 5720 5720 5719 5718 5717 5717 5715 5714 5714 5713 5712 5710 5708 5706 5704 5702 5700 5698 5697 5694 5691 5688 5685 5682 5679 5676
5681 5682 5687 5691 5692 5697 5702 5699 5697 5698 5699 5700 5701 5701 5703 5703 5701 5700 5702 5705 5704 5699 5704 5713 5710 5708 5714 5719 5717 5714 5715 5717 5719 5717 5715 5714 5713 5714 5714 5714 5715 5715 5716 5717 5716 5716 5716 5715 5715 5715 5715 5715 5715 5715 5715 5715 5715 5716 5716 5715 5714 5714 5713 5712 5711 5710 5709 5708 5707 5706 5704 5703 5701 5699 5697 5695 5693 5691 5689 5686 5683 5680 5676 5673 5671 5668
5676 5678 5683 5684 5684 5689 5694 5691 5689 5690 5691 5692 5693 5694 5696 5697 5696 5696 5697 5698 5695 5691 5699 5705 5701 5702 5710 5711 5709 5709 5711 5713 5712 5710 5709 5708 5707 5706 5706 5707 5708 5707 5708 5710 5711 5711 5711 5710 5710 5709 5709 5710 5710 5710 5709 5709 5709 5709 5709 5709 5708 5708 5707 5706 5705 5704 5702 5702 5700 5699 5697 5695 5694 5692 5690 5688 5685 5683 5680 5677 5674 5671 5668 5666 5663 5660
5670 5673 5676 5677 5675 5680 5687 5685 5681 5682 5683 5683 5684 5687 5690 5692 5691 5690 5690 5690 5688 5687 5694 5697 5693 5696 5703 5704 5705 5705 5704 5703 5703 5704 5704 5703 5702 5700 5699 5699 5699 5699 5700 5702 5704 5705 5705 5705 5704 5704 5704 5704 5704 5703 5702 5702 5702 5702 5702 5702 5701 5701 5700 5699 5698 5697 5696 5695 5692 5691 5689 5688 5686 5684 5682 5680 5677 5674 5671 5668 5665 5663 5661 5658 5655 5652
5664 5665 5668 5669 5666 5672 5681 5678 5672 5675 5675 5672 5675 5682 5686 5686 5684 5682 5683 5685 5684 5683 5687 5687 5685 5691 5697 5698 5698 5697 5694 5695 5697 5697 5697 5695 5695 5694 5693 5692 5692 5691 5693 5694 5695 5696 5697 5698 5698 5697 5697 5696 5696 5696 5695 5694 5694 5694 5694 5694 5693 5693 5692 5692 5691 5690 5689 5687 5684 5683 5682 5680 5678 5676 5674 5672 5669 5666 5663 5660 5658 5656 5653 5650 5646 5643
5659 5658 5661 5662 5659 5665 5673 5669 5666 5669 5664 5661 5671 5681 5682 5678 5676 5676 5677 5679 5678 5677 5677 5676 5678 5686 5690 5689 5688 5688 5688 5689 5690 5689 5688 5688 5687 5687 5686 5686 5685 5685 5686 5686 5687 5688 5688 5689 5689 5689 5688 5687 5687 5688 5687 5686 5686 5686 5686 5685 5685 5684 5683 5683 5683 5682 5680 5678 5676 5675 5673 5671 5670 5668 5665 5663 5660 5657 5654 5652 5650 5647 5644 5641 5638 5634
5651 5653 5655 5656 5653 5658 5663 5661 5659 5657 5651 5657 5672 5678 5673 5670 5669 5667 5668 5671 5671 5669 5668 5669 5674 5681 5683 5681 5681 5682 5681 5681 5682 5682 5682 5681 5680 5680 5680 5679 5678 5679 5679 5679 5680 5680 5679 5679 5679 5679 5679 5679 5679 5679 5678 5678 5678 5677 5676 5676 5676 5675 5674 5673 5673 5672 5670 5669 5667 5666 5665 5663 5662 5659 5656 5654 5651 5648 5646 5644 5641 5638 5636 5632 5629 5625
5645 5646 5648 5649 5647 5649 5653 5652 5647 5642 5646 5659 5667 5667 5664 5664 5661 5658 5658 5662 5664 5663 5663 5665 5669 5674 5676 5674 5673 5673 5672 5673 5674 5675 5676 5675 5674 5673 5673 5673 5673 5672 5672 5672 5671 5671 5671 5670 5670 5671 5671 5671 5671 5671 5670 5670 5669 5668 5668 5667 5667 5666 5665 5664 5663 5662 5661 5661 5660 5659 5657 5655 5653 5650 5647 5645 5643 5641 5638 5635 5633 5630 5627 5623 5620 5616
5639 5640 5640 5641 5640 5641 5642 5640 5636 5637 5646 5654 5656 5658 5659 5657 5654 5652 5651 5655 5660 5659 5658 5658 5661 5666 5667 5665 5665 5665 5665 5666 5666 5668 5670 5668 5667 5667 5667 5667 5667 5665 5664 5664 5663 5663 5662 5663 5664 5664 5664 5664 5663 5663 5663 5662 5661 5661 5660 5659 5658 5658 5657 5656 5655 5654 5654 5654 5652 5650 5648 5646 5644 5641 5639 5637 5635 5633 5630 5627 5625 5621 5618 5614 5611 5608
5631 5632 5632 5632 5631 5632 5632 5630 5631 5634 5638 5643 5648 5652 5652 5650 5650 5647 5643 5648 5656 5655 5651 5650 5653 5658 5659 5659 5659 5658 5657 5656 5658 5662 5664 5661 5660 5661 5660 5660 5659 5657 5657 5657 5656 5656 5657 5656 5657 5657 5657 5656 5656 5656 5655 5654 5653 5653 5653 5652 5651 5650 5649 5649 5648 5648 5647 5646 5644 5642 5640 5637 5635 5634 5632 5630 5628 5625 5623 5619 5616 5612 5609 5606 5603 5599
5623 5624 5625 5624 5623 5625 5625 5624 5625 5624 5626 5637 5645 5645 5643 5643 5643 5640 5634 5639 5650 5651 5645 5643 5646 5650 5653 5652 5651 5650 5648 5647 5650 5656 5657 5653 5651 5652 5651 5651 5651 5650 5651 5651 5651 5651 5651 5650 5650 5650 5649 5649 5648 5647 5647 5646 5646 5646 5645 5644 5644 5643 5642 5642 5641 5641 5639 5637 5635 5633 5631 5629 5628 5626 5624 5622 5620 5617 5614 5611 5607 5604 5601 5597 5594 5591
5615 5616 5618 5616 5614 5617 5617 5616 5615 5615 5621 5633 5637 5634 5634 5635 5635 5631 5625 5631 5644 5645 5639 5638 5640 5643 5645 5643 5642 5641 5639 5638 5643 5648 5647 5643 5643 5643 5643 5643 5644 5644 5645 5645 5644 5644 5643 5643 5643 5642 5642 5641 5640 5640 5640 5640 5639 5639 5638 5637 5636 5635 5635 5635 5634 5632 5629 5627 5626 5625 5623 5622 5620 5618 5616 5614 5611 5608 5605 5602 5599 5595 5592 5588 5584 5581
5607 5608 5609 5607 5606 5609 5609 5607 5608 5610 5618 5627 5628 5625 5626 5627 5626 5621 5617 5624 5637 5638 5633 5634 5635 5635 5635 5634 5633 5633 5632 5632 5636 5638 5636 5635 5636 5636 5636 5636 5637 5637 5638 5638 5638 5637 5636 5635 5635 5634 5634 5634 5633 5634 5633 5633 5632 5631 5630 5630 5629 5628 5628 5626 5624 5622 5620 5619 5618 5617 5615 5613 5611 5609 5607 5605 5602 5599 5596 5593 5590 5586 5582 5578 5575 5571
5599 5600 5600 5600 5601 5602 5602 5600 5601 5604 5613 5620 5620 5618 5618 5616 5614 5612 5613 5622 5629 5627 5625 5627 5626 5626 5628 5627 5626 5626 5626 5626 5627 5628 5629 5629 5629 5628 5629 5629 5629 5630 5630 5630 5630 5629 5628 5628 5627 5627 5627 5626 5626 5626 5625 5625 5624 5623 5622 5622 5621 5619 5618 5616 5615 5614 5612 5611 5610 5608 5606 5604 5602 5600 5598 5595 5593 5590 5587 5584 5580 5576 5572 5568 5564 5561
5591 5591 5591 5592 5594 5595 5595 5595 5593 5597 5608 5614 5611 5608 5609 5607 5606 5608 5612 5615 5616 5616 5617 5618 5617 5619 5620 5619 5620 5620 5620 5620 5620 5620 5621 5621 5621 5621 5621 5621 5621 5621 5621 5621 5620 5620 5620 5619 5619 5619 5619 5619 5618 5618 5617 5617 5616 5615 5614 5613 5612 5610 5609 5608 5607 5606 5605 5603 5601 5599 5598 5596 5593 5591 5589 5586 5583 5580 5577 5574 5570 5566 5563 5558 5554 5551
5583 5583 5582 5585 5589 5589 5588 5587 5585 5590 5603 5608 5603 5601 5602 5601 5601 5603 5605 5604 5606 5608 5609 5609 5610 5611 5611 5611 5612 5612 5612 5613 5613 5612 5613 5613 5613 5613 5612 5612 5612 5611 5611 5611 5610 5611 5611 5611 5611 5610 5610 5610 5610 5609 5609 5609 5608 5607 5606 5605 5603 5602 5601 5600 5599 5598 5596 5595 5593 5591 5589 5587 5584 5582 5579 5576 5573 5570 5567 5563 5559 5556 5552 5548 5545 5541
5574 5575 5575 5579 5583 5581 5580 5580 5582 5588 5596 5598 5595 5594 5594 5593 5594 5596 5596 5597 5599 5600 5600 5601 5602 5603 5603 5604 5604 5603 5604 5605 5604 5605 5605 5604 5604 5604 5603 5603 5603 5602 5602 5603 5602 5602 5602 5601 5602 5602 5601 5602 5602 5601 5601 5600 5599 5598 5597 5596 5596 5595 5593 5592 5591 5589 5588 5585 5583 5582 5579 5577 5575 5572 5569 5566 5563 5560 5557 5553 5549 5546 5542 5539 5535 5532
5566 5569 5570 5573 5575 5573 5573 5576 5580 5583 5586 5587 5587 5588 5587 5587 5589 5590 5590 5592 5592 5592 5593 5593 5593 5594 5596 5596 5596 5596 5597 5596 5596 5596 5595 5594 5594 5594 5593 5594 5594 5594 5595 5594 5593 5593 5593 5592 5593 5593 5593 5593 5593 5592 5592 5591 5590 5589 5588 5588 5587 5586 5585 5583 5582 5580 5578 5576 5574 5571 5569 5567 5564 5561 5559 5556 5553 5550 5546 5543 5539 5536 5532 5529 5526 5522
5560 5562 5563 5565 5566 5566 5567 5570 5573 5575 5577 5579 5580 5581 5581 5581 5582 5583 5584 5584 5584 5585 5586 5585 5585 5587 5588 5588 5588 5589 5588 5587 5587 5586 5586 5585 5585 5584 5584 5585 5585 5586 5586 5585 5585 5584 5584 5584 5584 5584 5584 5584 5583 5583 5583 5582 5582 5581 5580 5579 5578 5577 5576 5574 5572 5570 5568 5566 5563 5561 5559 5557 5554 5551 5548 5545 5542 5539 5536 5533 5530 5526 5523 5520 5516 5512
5551 5553 5554 5555 5556 5558 5560 5563 5567 5568 5569 5571 5572 5573 5574 5574 5574 5575 5576 5576 5577 5577 5578 5578 5578 5579 5580 5580 5581 5580 5579 5579 5578 5577 5577 5577 5577 5577 5578 5577 5577 5577 5577 5577 5576 5576 5576 5576 5576 5576 5576 5575 5574 5575 5574 5573 5573 5572 5571 5570 5569 5568 5566 5564 5562 5560 5558 5555 5553 5551 5548 5546 5543 5540 5537 5535 5532 5529 5526 5523 5520 5516 5513 5510 5506 5502
5542 5544 5545 5546 5548 5551 5553 5557 5560 5560 5561 5563 5564 5564 5566 5566 5566 5567 5567 5568 5568 5569 5569 5570 5571 5571 5572 5572 5572 5572 5571 5570 5569 5569 5570 5570 5570 5571 5571 5570 5570 5570 5569 5569 5569 5568 5568 5568 5568 5568 5568 5567 5566 5566 5566 5565 5564 5563 5562 5561 5560 5558 5556 5554 5552 5550 5547 5545 5542 5540 5537 5535 5532 5530 5527 5524 5521 5519 5516 5512 5509 5506 5503 5500 5495 5492
5534 5536 5537 5539 5541 5543 5546 5551 5553 5552 5553 5555 5556 5556 5558 5558 5558 5559 5559 5559 5560 5560 5561 5563 5563 5563 5564 5564 5564 5564 5563 5562 5562 5562 5562 5562 5563 5564 5564 5564 5563 5562 5562 5562 5561 5560 5560 5560 5560 5560 5559 5558 5558 5558 5557 5556 5555 5554 5552 5551 5549 5547 5545 5543 5541 5538 5536 5533 5531 5528 5526 5524 5521 5519 5516 5513 5511 5508 5505 5502 5499 5496 5493 5489 5485 5481
5527 5529 5531 5533 5533 5536 5541 5543 5543 5543 5545 5547 5548 5548 5548 5549 5550 5551 5551 5551 5552 5552 5554 5555 5555 5556 5556 5556 5555 5555 5554 5554 5554 5554 5554 5555 5555 5555 5555 5555 5555 5554 5554 5553 5552 5552 5552 5552 5551 5551 5550 5549 5549 5548 5547 5546 5545 5543 5542 5540 5538 5536 5534 5531 5529 5527 5524 5522 5520 5517 5515 5513 5510 5508 5505 5502 5500 5497 5494 5491 5488 5485 5482 5478 5474 5470
5521 5522 5524 5525 5527 5530 5533 5533 5533 5535 5538 5539 5539 5539 5540 5542 5543 5542 5542 5543 5544 5545 5546 5546 5546 5547 5547 5547 5547 5546 5546 5546 5546 5547 5547 5547 5547 5547 5547 5546 5546 5545 5545 5544 5544 5544 5543 5543 5543 5542 5540 5539 5538 5538 5537 5535 5534 5533 5531 5529 5527 5525 5523 5521 5519 5516 5514 5512 5509 5507 5504 5502 5499 5497 5494 5491 5489 5486 5483 5480 5476 5473 5470 5466 5463 5459